Zurück zum Katalog

STARLINK-35977

AktivKommunikationVLEO
NORAD 66604·PAYLOAD·🇺🇸 United States

Gestartet Nov 22, 2025 von Cape Canaveral Space Force Station

Loading…

Nächste Überflüge (nächste 24 Stunden)

TLE

AktuellSource: CelesTrak SupGP

Epoche: Sep 14, 2026, 23:11 UTC

1 66604C 25270S   26257.96645833  .00062727  00000+0  22725-2 0  2574
2 66604  43.0031  66.8444 0001697 273.1375 240.3841 15.27538846    10

Verfolge STARLINK-35977 in Echtzeit mit AllMySat

Download on the App Store